GW0755 Weather Reports


time (UTC)temp
C
wind
direction
speed
KPH
gust
KPH
rain 1hr
cm
rain 24hr
cm
rain mn
cm
humidity
%
barometer
mb
20260507154557 30 72 16.1 29.0 0.00 0.00 0.00 74 1014.8
20260507153051 30 105 17.7 30.6 0.00 0.00 0.00 76 1014.9
20260507151551 30 87 14.5 25.7 0.00 0.00 0.00 75 1014.9
20260507150051 30 105 16.1 29.0 0.00 0.00 0.00 76 1014.8
20260507144617 29 81 12.9 27.4 0.00 0.00 0.00 77 1014.7
20260507143057 29 102 16.1 32.2 0.00 0.00 0.00 77 1014.7
20260507141620 30 115 11.3 32.2 0.00 0.00 0.00 76 1014.4
20260507140056 29 48 11.3 30.6 0.00 0.00 0.00 77 1014.2
20260507134552 28 101 12.9 22.5 0.00 0.00 0.00 79 1014.2
20260507133052 28 73 12.9 24.1 0.00 0.00 0.00 79 1014.3
20260507131553 28 120 17.7 29.0 0.00 0.00 0.00 79 1014.1
20260507130108 28 128 11.3 22.5 0.00 0.00 0.00 80 1013.9
20260507124552 28 75 6.4 22.5 0.00 0.00 0.00 82 1013.8
20260507123052 27 0 6.4 17.7 0.00 0.00 0.00 84 1013.7
20260507121552 27 77 3.2 11.3 0.00 0.00 0.00 84 1013.7
20260507120050 26 100 3.2 9.7 0.00 0.00 0.00 86 1013.5
20260507114557 26 105 3.2 11.3 0.00 0.00 0.00 87 1013.4
20260507113046 26 103 1.6 14.5 0.00 0.00 0.00 87 1013.2
20260507111553 26 88 4.8 12.9 0.00 0.00 0.00 87 1012.9
20260507110054 26 75 8.0 17.7 0.00 0.00 0.00 87 1012.6
20260507104556 26 102 6.4 12.9 0.00 0.00 0.00 88 1012.6
20260507103050 26 91 6.4 16.1 0.00 0.00 0.00 88 1012.3
20260507101554 26 74 6.4 19.3 0.00 0.00 0.00 87 1012.4
20260507100052 26 89 8.0 16.1 0.00 0.00 0.00 87 1012.3
20260507094552 26 77 8.0 16.1 0.00 0.00 0.00 87 1012.2
20260507093058 26 115 8.0 16.1 0.00 0.00 0.00 88 1012.1
20260507091557 26 95 4.8 12.9 0.00 0.00 0.00 88 1012.1
20260507090050 26 120 6.4 12.9 0.00 0.00 0.00 88 1012.2
20260507084551 26 77 6.4 14.5 0.00 0.00 0.00 88 1012.3
20260507083052 26 83 4.8 16.1 0.00 0.00 0.00 88 1012.4
20260507081552 26 92 3.2 16.1 0.00 0.00 0.00 88 1012.5
20260507080056 26 82 4.8 16.1 0.00 0.00 0.00 88 1012.7
20260507074557 26 75 6.4 14.5 0.00 0.00 0.00 88 1012.8
20260507073101 26 70 4.8 12.9 0.00 0.00 0.00 88 1013.0
20260507071556 26 68 4.8 11.3 0.00 0.00 0.00 88 1013.2
20260507070100 26 60 3.2 9.7 0.00 0.00 0.00 88 1013.3
20260507064602 26 44 8.0 17.7 0.00 0.00 0.00 87 1013.3
20260507063056 26 71 4.8 12.9 0.00 0.00 0.00 88 1013.6
20260507061604 26 0 4.8 12.9 0.00 0.00 0.00 88 1013.7
20260507060104 26 65 4.8 17.7 0.00 0.00 0.00 87 1013.9
20260507054552 26 46 4.8 11.3 0.00 0.00 0.00 87 1014.2
20260507053056 26 58 6.4 24.1 0.00 0.00 0.00 87 1014.3
20260507051553 26 82 6.4 14.5 0.00 0.00 0.00 87 1014.5
20260507050050 26 126 6.4 14.5 0.00 0.00 0.00 88 1014.5
20260507044600 26 41 3.2 8.0 0.00 0.00 0.00 88 1014.8
20260507043051 26 102 3.2 11.3 0.00 0.00 0.00 88 1014.8
20260507041551 26 77 4.8 11.3 0.00 0.00 0.00 88 1015.0
20260507040050 26 84 4.8 11.3 0.00 0.00 0.00 89 1015.0
20260507034603 26 101 4.8 11.3 0.00 0.00 0.00 89 1014.9
20260507033056 26 112 6.4 16.1 0.00 0.00 0.00 89 1014.8
20260507031551 26 104 6.4 12.9 0.00 0.00 0.00 89 1014.6
20260507030057 26 97 6.4 14.5 0.00 0.00 0.00 89 1014.5
20260507024557 26 84 6.4 12.9 0.00 0.00 0.00 88 1014.4
20260507023053 26 98 1.6 8.0 0.00 0.00 0.00 86 1014.3
20260507021556 26 104 3.2 9.7 0.00 0.00 0.00 86 1014.2
20260507020050 26 115 0.0 8.0 0.00 0.00 0.00 86 1014.2
20260507014550 26 102 1.6 9.7 0.00 0.00 0.00 85 1014.2
20260507013058 26 103 4.8 11.3 0.00 0.00 0.00 85 1014.0
20260507011555 27 106 3.2 9.7 0.00 0.00 0.00 84 1014.0
20260507010054 27 91 4.8 12.9 0.00 0.00 0.00 83 1013.9
20260507004553 27 86 3.2 12.9 0.00 0.00 0.00 83 1013.8
20260507003049 27 84 4.8 12.9 0.00 0.00 0.00 83 1013.6
20260507001549 27 91 3.2 11.3 0.00 0.00 0.00 82 1013.4
20260507000054 27 150 8.0 22.5 0.00 0.00 0.00 80 1013.3
20260506234554 28 42 9.7 19.3 0.00 0.00 0.00 80 1013.2
20260506233051 28 114 12.9 24.1 0.00 0.00 0.00 79 1013.1
20260506231550 28 74 8.0 27.4 0.00 0.00 0.00 78 1013.0
20260506230049 29 96 12.9 27.4 0.00 0.00 0.00 76 1013.0
20260506224602 30 50 9.7 22.5 0.00 0.00 0.00 74 1013.1
20260506223056 29 105 12.9 25.7 0.00 0.00 0.00 74 1012.9
20260506221556 29 105 14.5 33.8 0.00 0.00 0.00 74 1012.9
20260506220051 29 51 14.5 32.2 0.00 0.00 0.00 75 1012.9
20260506214609 30 76 14.5 35.4 0.00 0.00 0.00 72 1012.8
20260506213053 30 90 12.9 25.7 0.00 0.00 0.00 73 1012.8
20260506211552 30 44 11.3 24.1 0.00 0.00 0.00 70 1012.8
20260506210055 30 67 12.9 29.0 0.00 0.00 0.00 71 1013.1
20260506204559 31 44 12.9 30.6 0.00 0.00 0.00 71 1013.1
20260506203055 31 74 16.1 29.0 0.00 0.00 0.00 67 1013.2
20260506201552 31 79 12.9 27.4 0.00 0.00 0.00 68 1013.3
20260506200051 31 41 14.5 29.0 0.00 0.00 0.00 70 1013.5
20260506194603 31 107 12.9 24.1 0.00 0.00 0.00 69 1013.8
20260506193059 31 66 16.1 29.0 0.00 0.00 0.00 68 1013.9
20260506191552 31 92 17.7 33.8 0.00 0.00 0.00 67 1013.9
20260506190049 31 82 11.3 29.0 0.00 0.00 0.00 69 1014.0
20260506184550 31 82 12.9 32.2 0.00 0.00 0.00 67 1014.2
20260506183100 31 96 12.9 29.0 0.00 0.00 0.00 70 1014.3
20260506181552 31 110 16.1 29.0 0.00 0.00 0.00 70 1014.6
20260506180055 31 7 11.3 25.7 0.00 0.00 0.00 70 1014.7
20260506174556 31 98 14.5 32.2 0.00 0.00 0.00 68 1014.8
20260506173059 31 88 16.1 32.2 0.00 0.00 0.00 71 1014.9
20260506171604 31 119 16.1 32.2 0.00 0.00 0.00 69 1015.0
20260506170107 30 85 12.9 27.4 0.00 0.00 0.00 73 1015.0
20260506164600 30 82 17.7 29.0 0.00 0.00 0.00 72 1015.1
20260506163105 30 108 16.1 27.4 0.00 0.00 0.00 73 1015.3
20260506161603 30 139 16.1 29.0 0.00 0.00 0.00 72 1015.2
20260506160052 30 48 11.3 29.0 0.00 0.00 0.00 72 1015.2